STARLINK-11497, 62470

Orbit data source: Space-Track

STARLINK-11497, 62470 is a payload satellite owned by SpaceX/Seattle (US) in LEO that was launched on Tue, 31 Dec 2024 UTC via an FALCON 9 launch vehicle from the Air Force Eastern Test Range (AFETR). Payload-class satellites include a variety of spacecraft equipped with specific instruments for various scientific and technological missions. These include communications satellites like Starlink; space stations such as the ISS; scientific satellites like the Hubble; Earth observation satellites from companies like Planet Labs, Umbra, and HawkEye 360; GPS; miniature CubeSats for education and research; and military/defense satellites.

Loading next visibility...
Identifier
62470, 2024-254J
Orbit
LEO
Country
Flag of USUS
Related business
Manufacturer
SpaceX/Seattle
Mission
Operational Commercial Communications
Bus & Motor
STARLINK V2MD, Unknown motor
Mass
960 kg wet, ~910 kg dry
Launch date (UTC)
2024-12-31 (1 year ago)
Launch vehicle
FALCON 9
Launch site
Air Force Eastern Test Range (AFETR)
Object type
Payload
Rocket body
Debris
Shape & HBR
Box + 2 Pan, 18.1 m
Radar Cross Section
36.964 m², Large (>1 m²)

Expand to show TLE details & history
Last TLE update: 11 hours ago

TLE from 11 hours ago
0 STARLINK-11497
1 62470U 24254J   26171.46193499  .00260300  00000-0  19636-2 0  9996
2 62470  42.9991 323.5934 0001832 267.9059  92.1599 15.70908080 85563
Epoch: 2026-06-20T11:05Z
TLE epoch observation values (Epoch: 2026-06-20T11:05:11.183Z)
Latitude
0.00001°
Longitude
-111.3794°
Altitude
356.118 km
Speed
7.697 km/s
True Right ascension
21h 34m 22s
True Declination
0° 00' 00"
Sunlit
Object was in full shadow at epoch
Visualization orbit readout
Latitude
Unknown
Longitude
Unknown
Altitude
Unknown
Speed
Unknown
Apparent Right ascension
Unknown
Apparent Declination
Unknown
Sunlit
N/A
Visualization observer readout
Local Sidereal Time
08:58:01
Azimuth
Unknown
Elevation
Unknown
Doppler factor
Unknown
Orbital elements
Apogee altitude
359.516 km
Perigee altitude
357.048 km
Semi-major axis
6,736.419 km
Eccentricity
0.00018
Inclination
42.9991°
RAAN
323.5934°
Arg. of periapsis
267.9059°
True anomaly
92.18088°
Mean anomaly
92.1599°
Eccentric anomaly
92.17039°
Mean motion
3.92554 °/min
Orbital period
91.71 mins
BSTAR
0.0019636
Loading maneuver chart data...
Computing Atmospheric mass density...
Loading historical data...
Loading historical data...
Loading historical data...
Loading historical data...
Loading historical data...
Loading historical data...
Loading historical data...

Documentation

Showing up to 5 results
|